This demonstration page uses our WeatherBlox Daily Observations layout. Learn more.

Left ArrowRight Arrow

39.01783, -85.05884

Hourly Observations for June 19, 2017

Temp ( °F °C ) Dew Point ( °F °C ) Humidity (%) Winds ( mph kmh ) Pressure ( in mb ) Visibility ( mi km ) Precip ( " mm )
12:52 am 00:52 Cloudy with Light Rain 68 20 66 19 94 94 WSW 6 9 29.80 1009 7 11 N/A
1:52 am 01:52 Cloudy with Light Rain 67 19.4 66 18.9 97 97 S 5 7 29.80 1009 8 13 0.06 1.52
2:52 am 02:52 Cloudy 66 18.9 66 18.9 100 100 SSW 5 7 29.79 1009 10 16 N/A
3:52 am 03:52 Cloudy 66 18.9 65 18.3 96 96 WSW 5 7 29.80 1009 10 16 N/A
4:22 am 04:22 Mostly Cloudy 66 18.9 65 18.3 96 96 SW 3 6 29.80 1009 9 14 N/A
4:52 am 04:52 Mostly Cloudy 65 18.3 65 18.3 100 100 SW 3 6 29.81 1010 7 11 N/A
5:00 am 05:00 Mostly Cloudy with Mist and Fog 65 18.3 65 18.3 100 100 WSW 3 6 29.80 1009 6 10 N/A
5:52 am 05:52 Partly Cloudy with Mist and Fog 64 17.8 64 17.8 100 100 N N/A 29.83 1010 6 10 N/A
6:37 am 06:37 Partly Cloudy with Mist and Fog 63 17.2 63 17.2 100 100 N N/A 29.85 1011 2 3 N/A
6:45 am 06:45 Mostly Cloudy with Mist and Fog 64 17.8 63 17.2 96 96 N N/A 29.85 1011 2 3 N/A
6:52 am 06:52 Mostly Cloudy with Patchy Fog 64 17.8 64 17.8 100 100 WSW 5 7 29.84 1011 2 3 N/A
7:52 am 07:52 Mostly Cloudy with Mist and Fog 65 18.3 65 18.3 100 100 SW 3 6 29.85 1011 2 3 N/A
8:11 am 08:11 Partly Cloudy 67 19.4 65 18.3 93 93 W 5 7 29.85 1011 7 11 N/A
8:52 am 08:52 Mostly Sunny 69 20.6 66 18.9 90 90 WSW 5 7 29.87 1012 10 16 N/A
9:52 am 09:52 Sunny 73 22.8 64 17.8 74 74 W 7 11 29.88 1012 10 16 N/A
10:52 am 10:52 Mostly Sunny 75 23.9 60 15.6 60 60 WSW 8 13 29.88 1012 10 16 N/A
11:52 am 11:52 Mostly Cloudy 76 24.4 61 16.1 60 60 W 8 13 29.89 1012 10 16 N/A
12:52 pm 12:52 Partly Cloudy 78 25.6 59 15 52 52 W 13 20 29.89 1012 10 16 N/A
1:52 pm 13:52 Partly Cloudy 80 26.7 59 15 49 49 SW 9 15 29.87 1012 10 16 N/A
2:52 pm 14:52 Mostly Cloudy 79 26.1 58 14.4 49 49 WSW 13 20 29.85 1011 10 16 N/A
3:52 pm 15:52 Partly Cloudy 80 26.7 60 15.6 51 51 WSW 10 17 29.86 1011 10 16 N/A
4:52 pm 16:52 Partly Cloudy 80 26.7 57 13.9 45 45 W 17 28 29.85 1011 10 16 N/A
5:52 pm 17:52 Mostly Sunny 80 26.7 56 13.3 44 44 W 16 26 29.86 1011 10 16 N/A
6:52 pm 18:52 Mostly Sunny 80 26.7 57 13.9 45 45 W 16 26 29.86 1011 10 16 N/A
7:52 pm 19:52 Mostly Sunny 78 25.6 56 13.3 47 47 W 14 22 29.88 1012 10 16 N/A
8:52 pm 20:52 Mostly Sunny 73 22.8 54 12.2 51 51 W 9 15 29.90 1013 10 16 N/A
9:52 pm 21:52 Mostly Clear 72 22.2 53 11.7 52 52 WSW 5 7 29.93 1013 10 16 N/A
10:52 pm 22:52 Mostly Clear 70 21.1 53 11.7 55 55 SW 6 9 29.96 1015 10 16 N/A
11:52 pm 23:52 Clear 67 19.4 54 12.2 63 63 SSW 5 7 29.97 1015 10 16 N/A

Powered by AerisWeather